�N����,����,����,����,����,�C��,���x,�~����,�S�V����,�ő�u�ԕ���,,,,,
,,,,,,,,,����,����,����,�N��,,
yyyy/mm/dd,hh:mm:ss,(16),16����,m/s,��,%,mm,KW/�u,(16),16����,m/s,Time,,
2017/3/1,1:00:00,12,��,0.8,-12.1,85.7,0,0,12,��,2.8,31,,
2017/3/1,2:00:00,12,��,1.6,-11.6,86.2,0,0,12,��,3.3,15,,
2017/3/1,3:00:00,12,��,2.9,-10,88.5,0,0,13,���k��,4.9,53,,
2017/3/1,4:00:00,11,���쐼,2.4,-12.8,86,0,0,12,��,3.4,23,,
2017/3/1,5:00:00,11,���쐼,1.8,-11.7,89,0,0,9,��쐼,3.5,7,,
2017/3/1,6:00:00,11,���쐼,1.9,-11.7,88.3,0,0.01,9,��쐼,3.5,31,,
2017/3/1,7:00:00,11,���쐼,1.6,-11.5,88.3,0,0.03,9,��쐼,3.3,1,,
2017/3/1,8:00:00,16,�É�,0,-8.7,85.6,0,0.14,12,��,2.9,32,,
2017/3/1,9:00:00,11,���쐼,0.9,-5.8,70.9,0,0.28,11,���쐼,2.6,23,,
2017/3/1,10:00:00,16,�É�,0,-0.3,40.3,0,0.58,13,���k��,0.9,0,,
2017/3/1,11:00:00,6,�쓌,1.5,-0.9,40.6,0,0.73,6,�쓌,3.1,47,,
2017/3/1,12:00:00,5,���쓌,1.8,-0.2,53.9,0,0.76,6,�쓌,3.1,30,,
2017/3/1,13:00:00,2,�k��,2.3,0.3,56.7,0,0.73,2,�k��,3,59,,
2017/3/1,14:00:00,3,���k��,1.4,2.3,64,0,0.63,2,�k��,3.2,2,,
2017/3/1,15:00:00,3,���k��,1,1.2,55.6,0,0.4,4,��,1.9,32,,
2017/3/1,16:00:00,2,�k��,1.2,0.1,66.8,0,0.22,2,�k��,2.1,7,,
2017/3/1,17:00:00,16,�É�,0,-0.2,72.7,0,0.08,2,�k��,2,11,,
2017/3/1,18:00:00,11,���쐼,0.6,-2.2,78.9,0,0.01,12,��,1.8,44,,
2017/3/1,19:00:00,9,��쐼,1.4,-2.7,83.1,0,0,10,�쐼,2.3,50,,
2017/3/1,20:00:00,12,��,1.1,-2.8,85.2,0,0,12,��,2.7,50,,
2017/3/1,21:00:00,12,��,1.9,-2.2,87.7,0,0,12,��,2.5,55,,
2017/3/1,22:00:00,13,���k��,0.7,-2.7,87.4,0,0,12,��,2.5,48,,
2017/3/1,23:00:00,13,���k��,0.8,-3.7,86.1,0,0,14,�k��,1.9,7,,
2017/3/1,0:00:00,13,���k��,0.9,-3.6,86.7,0,0,12,��,2.4,30,,
2017/3/2,1:00:00,12,��,0.6,-4.1,86.6,0,0,2,�k��,1.9,42,,
2017/3/2,2:00:00,12,��,1.2,-4.2,86.4,0,0,13,���k��,2.3,59,,
2017/3/2,3:00:00,14,�k��,0.9,-3.2,84.2,0,0,2,�k��,4.1,29,,
2017/3/2,4:00:00,13,���k��,2.5,-2.8,85.8,0,0,12,��,3.2,56,,
2017/3/2,5:00:00,13,���k��,2.1,-4.4,84.2,0,0,12,��,3.2,46,,
2017/3/2,6:00:00,16,�É�,0,-5.9,85.2,0,0.01,12,��,2.3,8,,
2017/3/2,7:00:00,11,���쐼,1.3,-3.9,89.4,0,0.05,12,��,2.1,54,,
2017/3/2,8:00:00,13,���k��,1.5,-1.6,84.4,0,0.09,12,��,2.3,50,,
2017/3/2,9:00:00,13,���k��,1.6,-0.1,77.9,0,0.16,12,��,2.7,38,,
2017/3/2,10:00:00,16,�É�,0,0.9,74.3,0,0.18,4,��,2,2,,
2017/3/2,11:00:00,2,�k��,2.3,1.3,77.9,0,0.34,2,�k��,3.2,55,,
2017/3/2,12:00:00,2,�k��,2.1,1.4,83.5,0.5,0.33,2,�k��,3.6,26,,
2017/3/2,13:00:00,2,�k��,1.8,1.5,84,0.5,0.33,2,�k��,3,23,,
2017/3/2,14:00:00,16,�É�,0,1.9,81.5,0,0.3,2,�k��,2.9,14,,
2017/3/2,15:00:00,2,�k��,2.6,1.9,83,0,0.21,2,�k��,4.4,41,,
2017/3/2,16:00:00,3,���k��,1.9,1.5,87.7,0,0.09,1,�k�k��,3.7,0,,
2017/3/2,17:00:00,1,�k�k��,1.4,1.2,92.6,0,0.03,3,���k��,3.6,29,,
2017/3/2,18:00:00,16,�É�,0,0.9,93.3,0,0.01,1,�k�k��,1.7,21,,
2017/3/2,19:00:00,3,���k��,0.5,1,93.9,0,0,2,�k��,1.9,27,,
2017/3/2,20:00:00,14,�k��,0.6,0.7,94.4,0,0,1,�k�k��,1.4,32,,
2017/3/2,21:00:00,13,���k��,1.1,0.8,94.5,0,0,13,���k��,2.5,45,,
2017/3/2,22:00:00,13,���k��,1.7,0.5,94.1,0,0,14,�k��,2.8,19,,
2017/3/2,23:00:00,12,��,2.4,0.2,93.4,0,0,12,��,3.8,50,,
2017/3/2,0:00:00,14,�k��,1.9,0.6,94.8,0,0,13,���k��,4,36,,
2017/3/3,1:00:00,14,�k��,1.1,0.5,94.3,0,0,14,�k��,3.3,46,,
2017/3/3,2:00:00,14,�k��,1.9,0.8,92.8,0,0,15,�k�k��,3.3,51,,
2017/3/3,3:00:00,13,���k��,4,0.9,88.4,0,0,14,�k��,6.4,39,,
2017/3/3,4:00:00,13,���k��,4.5,1.1,84.9,0,0,13,���k��,6.9,58,,
2017/3/3,5:00:00,13,���k��,3,0.5,84.4,0,0,14,�k��,6.5,3,,
2017/3/3,6:00:00,14,�k��,3.6,0.9,84.4,0,0,13,���k��,7.2,55,,
2017/3/3,7:00:00,14,�k��,3.3,1.3,81.8,0,0.05,14,�k��,6.3,9,,
2017/3/3,8:00:00,14,�k��,4,3,70.8,0,0.2,15,�k�k��,7.5,44,,
2017/3/3,9:00:00,15,�k�k��,2.5,4.2,60.8,0,0.32,15,�k�k��,7.8,14,,
2017/3/3,10:00:00,14,�k��,4.7,5.6,48.8,0,0.64,15,�k�k��,8.9,45,,
2017/3/3,11:00:00,15,�k�k��,5.6,6.1,43.8,0,0.68,14,�k��,11.4,52,,
2017/3/3,12:00:00,15,�k�k��,6.1,5.9,42.3,0,0.76,1,�k�k��,11.4,37,,
2017/3/3,13:00:00,14,�k��,6.3,5,51.2,0,0.39,14,�k��,12.3,49,,
2017/3/3,14:00:00,14,�k��,7.4,3.9,47.7,0,0.6,14,�k��,14.1,56,,
2017/3/3,15:00:00,14,�k��,7.8,3.1,49,0,0.53,13,���k��,15.9,31,,
2017/3/3,16:00:00,14,�k��,6.5,2.1,56.7,0,0.36,13,���k��,14.1,24,,
2017/3/3,17:00:00,14,�k��,6.4,0.2,62.4,0,0.14,14,�k��,14.6,28,,
2017/3/3,18:00:00,14,�k��,4.4,-1.2,64.2,0,0.01,14,�k��,12.2,19,,
2017/3/3,19:00:00,14,�k��,3.5,-2.1,65.4,0,0,14,�k��,9.7,3,,
2017/3/3,20:00:00,14,�k��,2.2,-2.7,60.6,0,0,13,���k��,7.3,10,,
2017/3/3,21:00:00,12,��,4.7,-2.8,47.3,0,0,10,�쐼,8.7,40,,
2017/3/3,22:00:00,12,��,3.5,-3.2,47.6,0,0,13,���k��,9.8,6,,
2017/3/3,23:00:00,11,���쐼,2.1,-4.2,52.6,0,0,12,��,8.2,6,,
2017/3/3,0:00:00,13,���k��,2,-4.3,54.4,0,0,13,���k��,6.5,19,,
2017/3/4,1:00:00,16,�É�,0,-8.1,60,0,0,13,���k��,2.5,1,,
2017/3/4,2:00:00,16,�É�,0,-10,65.6,0,0,16,�É�,0,0,,
2017/3/4,3:00:00,12,��,1.6,-13.1,72,0,0,10,�쐼,2.5,37,,
2017/3/4,4:00:00,12,��,1.6,-11.5,79.8,0,0,4,��,3.6,25,,
2017/3/4,5:00:00,11,���쐼,1.7,-12,79.9,0,0,10,�쐼,3.7,11,,
2017/3/4,6:00:00,12,��,1.5,-12.9,81.7,0,0.01,12,��,3.4,4,,
2017/3/4,7:00:00,12,��,1.8,-10.8,79.4,0,0.1,12,��,3.3,53,,
2017/3/4,8:00:00,13,���k��,0.5,-5.8,59.8,0,0.31,12,��,3.6,10,,
2017/3/4,9:00:00,3,���k��,0.5,-0.6,39.3,0,0.5,11,���쐼,3.7,24,,
2017/3/4,10:00:00,4,��,3.2,-0.7,42.1,0,0.59,4,��,4.5,58,,
2017/3/4,11:00:00,4,��,2.6,0.7,38.8,0,0.62,4,��,4.5,53,,
2017/3/4,12:00:00,10,�쐼,5.9,1,35.9,0,0.78,10,�쐼,9.9,32,,
2017/3/4,13:00:00,9,��쐼,3.9,0.7,39.9,0,0.77,7,��쓌,8.5,23,,
2017/3/4,14:00:00,10,�쐼,5.4,1.8,36.1,0,0.7,10,�쐼,8.2,58,,
2017/3/4,15:00:00,11,���쐼,6,0.8,47.6,0,0.45,12,��,10.6,59,,
2017/3/4,16:00:00,10,�쐼,6,-0.4,55.4,0,0.29,12,��,9.8,2,,
2017/3/4,17:00:00,9,��쐼,3.8,-1.6,65.2,0,0.07,10,�쐼,7.6,18,,
2017/3/4,18:00:00,12,��,5,-1.4,49.7,0,0.01,12,��,8.2,59,,
2017/3/4,19:00:00,12,��,4.5,-3.1,49.6,0,0,12,��,8.7,1,,
2017/3/4,20:00:00,11,���쐼,8,-2.7,44.4,0,0,11,���쐼,12.3,59,,
2017/3/4,21:00:00,11,���쐼,5.3,-3.5,46.3,0,0,11,���쐼,12.3,0,,
2017/3/4,22:00:00,12,��,0.8,-7.4,46.9,0,0,11,���쐼,7.7,0,,
2017/3/4,23:00:00,12,��,1.3,-10.4,53,0,0,1,�k�k��,2.5,12,,
2017/3/4,0:00:00,13,���k��,1,-12.2,64.4,0,0,12,��,2,27,,
2017/3/5,1:00:00,11,���쐼,1.8,-12.5,70.1,0,0,13,���k��,3.8,53,,
2017/3/5,2:00:00,11,���쐼,1.3,-12.7,73.4,0,0,8,��,2.7,49,,
2017/3/5,3:00:00,11,���쐼,1.9,-14.7,73.9,0,0,12,��,2.6,25,,
2017/3/5,4:00:00,16,�k,0.9,-13.8,77.8,0,0,10,�쐼,3.9,15,,
2017/3/5,5:00:00,12,��,1.9,-14.9,77.6,0,0,12,��,3.4,45,,
2017/3/5,6:00:00,12,��,1.3,-14.5,79.1,0,0.01,8,��,3.8,26,,
2017/3/5,7:00:00,11,���쐼,1.8,-12,74.2,0,0.1,11,���쐼,4.3,8,,
2017/3/5,8:00:00,16,�É�,0.2,-6.6,55,0,0.31,11,���쐼,3,29,,
2017/3/5,9:00:00,16,�É�,0,-1.5,29.2,0,0.51,3,���k��,1.5,56,,
2017/3/5,10:00:00,11,���쐼,6.3,-0.2,36.9,0,0.65,12,��,11.1,32,,
2017/3/5,11:00:00,11,���쐼,6.1,0.6,32.8,0,0.74,11,���쐼,10.4,48,,
2017/3/5,12:00:00,10,�쐼,6.3,1,33.8,0,0.78,8,��,12.8,20,,
2017/3/5,13:00:00,11,���쐼,6.7,1.4,32.8,0,0.75,12,��,10.5,14,,
2017/3/5,14:00:00,11,���쐼,6.2,1.4,37.8,0,0.66,10,�쐼,12.3,22,,
2017/3/5,15:00:00,11,���쐼,7.4,1.2,38.6,0,0.52,10,�쐼,11.3,54,,
2017/3/5,16:00:00,10,�쐼,6.3,0.5,43.3,0,0.34,10,�쐼,12.6,6,,
2017/3/5,17:00:00,10,�쐼,7.7,-0.6,56.1,0,0.06,10,�쐼,11.2,53,,
2017/3/5,18:00:00,10,�쐼,4.1,-0.9,63.1,0,0.01,11,���쐼,12.8,20,,
2017/3/5,19:00:00,10,�쐼,3.6,-1.7,82.5,0,0,10,�쐼,8.6,1,,
2017/3/5,20:00:00,11,���쐼,2.5,-1.8,85.9,0,0,10,�쐼,5.3,0,,
2017/3/5,21:00:00,11,���쐼,4.1,-0.7,67.6,0,0,11,���쐼,7.8,44,,
2017/3/5,22:00:00,11,���쐼,3.9,-1,63.9,0,0,11,���쐼,6.6,34,,
2017/3/5,23:00:00,11,���쐼,2.7,-1.8,65.3,0,0,11,���쐼,8.8,3,,
2017/3/5,0:00:00,11,���쐼,3.6,-1.6,60.6,0,0,10,�쐼,7.4,4,,
2017/3/6,1:00:00,10,�쐼,4.5,-1.1,58.9,0,0,6,�쓌,8.9,25,,
2017/3/6,2:00:00,10,�쐼,5.2,-0.8,55.4,0,0,8,��,8,52,,
2017/3/6,3:00:00,16,�k,2.1,-3.6,49.6,0,0,8,��,8.8,30,,
2017/3/6,4:00:00,5,���쓌,2.4,-5.1,58,0,0,2,�k��,6.1,42,,
2017/3/6,5:00:00,15,�k�k��,0.4,-6.8,60.4,0,0,2,�k��,4.1,9,,
2017/3/6,6:00:00,12,��,1.9,-10.1,66.2,0,0.01,11,���쐼,2.9,50,,
2017/3/6,7:00:00,11,���쐼,2.3,-8.9,66.7,0,0.09,10,�쐼,3.5,8,,
2017/3/6,8:00:00,11,���쐼,1.2,-3.6,54.4,0,0.28,3,���k��,2.6,3,,
2017/3/6,9:00:00,10,�쐼,0.9,-1.8,33.4,0,0.47,9,��쐼,2.5,42,,
2017/3/6,10:00:00,7,��쓌,1.7,-1.2,26.6,0,0.58,7,��쓌,2.5,53,,
2017/3/6,11:00:00,7,��쓌,1.5,-0.6,31.2,0,0.7,6,�쓌,3.2,31,,
2017/3/6,12:00:00,7,��쓌,2.2,-0.5,32.6,0,0.72,7,��쓌,3.3,57,,
2017/3/6,13:00:00,7,��쓌,1.8,-0.6,32.4,0,0.7,7,��쓌,3.5,12,,
2017/3/6,14:00:00,7,��쓌,2.3,-0.7,42.4,0,0.57,6,�쓌,3.5,16,,
2017/3/6,15:00:00,5,���쓌,1,-0.2,48.7,0,0.39,8,��,3.2,7,,
2017/3/6,16:00:00,5,���쓌,1.4,-0.9,54.4,0,0.18,5,���쓌,2.5,51,,
2017/3/6,17:00:00,5,���쓌,1.2,-1,61.9,0,0.04,5,���쓌,2,55,,
2017/3/6,18:00:00,6,�쓌,1.5,-1.1,66.7,0,0.01,5,���쓌,2.6,32,,
2017/3/6,19:00:00,16,�É�,0.2,-1.6,70,0,0,5,���쓌,2.5,23,,
2017/3/6,20:00:00,4,��,2.4,-2.6,83.7,0,0,5,���쓌,5,34,,
2017/3/6,21:00:00,3,���k��,3,-3.3,91.7,0,0,3,���k��,6.6,42,,
2017/3/6,22:00:00,15,�k�k��,1.3,-3.5,93.8,0,0,2,�k��,4.7,4,,
2017/3/6,23:00:00,15,�k�k��,1.7,-3.4,94.2,0,0,1,�k�k��,4.5,22,,
2017/3/6,0:00:00,14,�k��,1.1,-3.5,93.9,0,0,10,�쐼,2.8,26,,
2017/3/7,1:00:00,13,���k��,2.2,-3.6,93.6,0,0,13,���k��,3.5,50,,
2017/3/7,2:00:00,14,�k��,1.3,-3.7,93.1,0,0,13,���k��,3.6,0,,
2017/3/7,3:00:00,15,�k�k��,0.8,-3.9,92.5,0,0,14,�k��,2.7,1,,
2017/3/7,4:00:00,14,�k��,0.3,-4.7,91,0,0,13,���k��,1.7,42,,
2017/3/7,5:00:00,12,��,1.4,-9,86.8,0,0,13,���k��,1.8,56,,
2017/3/7,6:00:00,14,�k��,1.2,-8.9,86.7,0.5,0.01,14,�k��,2.5,41,,
2017/3/7,7:00:00,11,���쐼,1.7,-11.1,86.9,0,0.07,10,�쐼,2.3,37,,
2017/3/7,8:00:00,12,��,1.3,-7.3,83.9,0,0.29,11,���쐼,2.5,21,,
2017/3/7,9:00:00,12,��,1,-4.6,54.3,0,0.52,13,���k��,2.3,43,,
2017/3/7,10:00:00,7,��쓌,1,-1.8,32.4,0,0.67,13,���k��,6.6,21,,
2017/3/7,11:00:00,7,��쓌,1.5,-1.3,29.9,6,0.8,10,�쐼,3.5,7,,
2017/3/7,12:00:00,7,��쓌,2,-1.1,41.6,0.5,0.85,7,��쓌,4.1,19,,
2017/3/7,13:00:00,6,�쓌,2.1,-0.6,49.5,0,0.74,6,�쓌,4.4,13,,
2017/3/7,14:00:00,14,�k��,2,0.5,29.2,0,0.75,11,���쐼,5.3,37,,
2017/3/7,15:00:00,11,���쐼,3.2,0.2,33.5,0,0.58,12,��,5.7,33,,
2017/3/7,16:00:00,11,���쐼,5.8,0.3,41.3,0,0.39,11,���쐼,11.5,41,,
2017/3/7,17:00:00,11,���쐼,4.1,-1.4,48,0,0.15,11,���쐼,9.2,25,,
2017/3/7,18:00:00,11,���쐼,2.3,-3.4,52.3,0,0.01,11,���쐼,6.6,32,,
2017/3/7,19:00:00,11,���쐼,1.4,-5.9,49.5,0,0,9,��쐼,4.2,2,,
2017/3/7,20:00:00,11,���쐼,1.6,-9.2,56.2,0,0,11,���쐼,2.3,59,,
2017/3/7,21:00:00,11,���쐼,1.1,-11.7,69.7,0,0,10,�쐼,2.3,5,,
2017/3/7,22:00:00,12,��,2.1,-10.4,83.2,0,0,12,��,2.8,54,,
2017/3/7,23:00:00,11,���쐼,1,-11.9,84,0,0,11,���쐼,2.8,16,,
2017/3/7,0:00:00,11,���쐼,1.8,-12.1,85.1,0,0,9,��쐼,2.7,17,,
2017/3/8,1:00:00,11,���쐼,2.6,-13.4,86.3,0,0,11,���쐼,3.4,51,,
2017/3/8,2:00:00,11,���쐼,2.4,-12.4,85.7,0,0,10,�쐼,3.5,14,,
2017/3/8,3:00:00,13,���k��,1.3,-13.7,85.4,0,0,12,��,3.5,23,,
2017/3/8,4:00:00,11,���쐼,1.2,-12.3,87.7,0,0,12,��,2.7,14,,
2017/3/8,5:00:00,12,��,2.2,-13.2,83.8,0,0,10,�쐼,3.6,11,,
2017/3/8,6:00:00,11,���쐼,1.9,-14.5,81.5,0,0.01,9,��쐼,4,14,,
2017/3/8,7:00:00,10,�쐼,2.6,-13.3,79.7,0,0.12,11,���쐼,3.6,46,,
2017/3/8,8:00:00,12,��,1.1,-9.4,53.8,0,0.33,11,���쐼,2.5,27,,
2017/3/8,9:00:00,12,��,0.9,-1.4,39.2,0,0.55,12,��,3.2,32,,
2017/3/8,10:00:00,10,�쐼,3,0.7,23.1,0,0.6,10,�쐼,4.8,52,,
2017/3/8,11:00:00,7,��쓌,3.5,1.1,30.7,0,0.81,8,��,6.2,49,,
2017/3/8,12:00:00,7,��쓌,3.4,0.8,41.3,0,0.77,8,��,7,33,,
2017/3/8,13:00:00,9,��쐼,3.8,1.7,35.8,0,0.76,9,��쐼,6.4,57,,
2017/3/8,14:00:00,11,���쐼,5,1.5,38.6,0,0.58,10,�쐼,8.7,56,,
2017/3/8,15:00:00,10,�쐼,6,0.6,49.7,0,0.58,10,�쐼,9.1,47,,
2017/3/8,16:00:00,10,�쐼,4.3,0.6,52.1,0,0.38,10,�쐼,8.3,0,,
2017/3/8,17:00:00,11,���쐼,3.7,-1,52.6,0,0.15,10,�쐼,6.2,51,,
2017/3/8,18:00:00,10,�쐼,2.5,-1.3,58.3,0,0.01,10,�쐼,4.7,26,,
2017/3/8,19:00:00,12,��,1.6,-2.5,62.5,0,0,9,��쐼,4.3,12,,
2017/3/8,20:00:00,12,��,1.7,-3.9,67.7,0,0,11,���쐼,3.1,31,,
2017/3/8,21:00:00,14,�k��,1.2,-3.7,73.2,0,0,12,��,2.7,10,,
2017/3/8,22:00:00,12,��,1.3,-5.4,74.6,0,0,12,��,2.4,58,,
2017/3/8,23:00:00,12,��,1.6,-5.9,77.5,0,0,13,���k��,2.5,5,,
2017/3/8,0:00:00,11,���쐼,1.8,-8,78.3,0,0,11,���쐼,3.2,15,,
2017/3/9,1:00:00,12,��,1.6,-8.5,83,0,0,12,��,2.4,10,,
2017/3/9,2:00:00,12,��,1.2,-9.2,83.6,0,0,12,��,2.8,44,,
2017/3/9,3:00:00,13,���k��,1.5,-9.1,84.7,0,0,13,���k��,2.2,36,,
2017/3/9,4:00:00,12,��,2.3,-9.5,84.1,0,0,12,��,2.9,52,,
2017/3/9,5:00:00,12,��,2.6,-10,84.5,0,0,12,��,3.5,49,,
2017/3/9,6:00:00,12,��,0.8,-10.2,86.4,0,0.01,11,���쐼,2.5,4,,
2017/3/9,7:00:00,16,�É�,0,-8.8,84.1,0,0.06,11,���쐼,2.4,15,,
2017/3/9,8:00:00,12,��,0.3,-8.1,69.5,0,0.18,12,��,2.4,34,,
2017/3/9,9:00:00,16,�É�,0.1,-2.8,49.3,0,0.4,12,��,1.5,36,,
2017/3/9,10:00:00,6,�쓌,2.3,0.1,36.8,0,0.5,6,�쓌,3,53,,
2017/3/9,11:00:00,4,��,1.4,2.9,39.9,0,0.64,6,�쓌,3.3,5,,
2017/3/9,12:00:00,5,���쓌,2.5,2,38.1,0,0.87,6,�쓌,3.6,50,,
2017/3/9,13:00:00,5,���쓌,0.7,2.4,40.7,0,0.68,6,�쓌,3.3,5,,
2017/3/9,14:00:00,11,���쐼,2.4,2.6,27.9,0,0.59,11,���쐼,4.9,59,,
2017/3/9,15:00:00,11,���쐼,2.9,2.7,38.5,0,0.54,10,�쐼,6.1,41,,
2017/3/9,16:00:00,12,��,2.2,1.7,49,0,0.31,10,�쐼,5.3,47,,
2017/3/9,17:00:00,2,�k��,1.1,0.8,58.9,0,0.13,12,��,3.1,20,,
2017/3/9,18:00:00,16,�É�,0,0.2,67.5,0,0.01,1,�k�k��,1.9,0,,
2017/3/9,19:00:00,13,���k��,1,0.2,69.2,0,0,13,���k��,2.8,44,,
2017/3/9,20:00:00,14,�k��,0.5,-1,70.6,0,0,1,�k�k��,2.5,21,,
2017/3/9,21:00:00,16,�É�,0,-1.7,74.3,0,0,10,�쐼,1.9,35,,
2017/3/9,22:00:00,12,��,0.8,-2.3,77.3,0,0,10,�쐼,2.1,17,,
2017/3/9,23:00:00,14,�k��,0.8,-3.2,80.8,0,0,12,��,2.1,26,,
2017/3/9,0:00:00,13,���k��,1.7,-3.4,83.2,0,0,13,���k��,2.3,55,,
2017/3/10,1:00:00,16,�É�,0,-4.1,83.8,0,0,10,�쐼,1.9,0,,
2017/3/10,2:00:00,11,���쐼,1.4,-4,84.9,0,0,12,��,2.1,56,,
2017/3/10,3:00:00,12,��,1.1,-4.7,87,0,0,12,��,2.2,5,,
2017/3/10,4:00:00,16,�É�,0.2,-4.6,86.8,0,0,12,��,1.5,38,,
2017/3/10,5:00:00,12,��,0.6,-4.8,86.8,0,0,12,��,1.8,58,,
2017/3/10,6:00:00,11,���쐼,0.7,-5.3,86.2,0,0.01,11,���쐼,1.8,57,,
2017/3/10,7:00:00,12,��,1.6,-4.6,84.5,0,0.05,11,���쐼,2.2,53,,
2017/3/10,8:00:00,13,���k��,1.7,-2.2,70.4,0,0.19,13,���k��,2.9,38,,
2017/3/10,9:00:00,13,���k��,1.6,0.3,47.7,0,0.44,13,���k��,2.9,46,,
2017/3/10,10:00:00,16,�É�,0,2.4,33.7,0,0.5,13,���k��,2.2,7,,
2017/3/10,11:00:00,5,���쓌,1.1,2.7,22.7,0,0.72,5,���쓌,2.5,59,,
2017/3/10,12:00:00,6,�쓌,2.2,2.3,35.4,0,0.78,6,�쓌,3.8,15,,
2017/3/10,13:00:00,6,�쓌,2.2,2.2,37.6,0,0.69,6,�쓌,4.2,16,,
2017/3/10,14:00:00,7,��쓌,1.7,1.7,40.4,0,0.47,8,��,3.9,3,,
2017/3/10,15:00:00,7,��쓌,2,1,54.3,0,0.29,7,��쓌,3.1,39,,
2017/3/10,16:00:00,7,��쓌,1,1,57,0,0.16,7,��쓌,3.3,2,,
2017/3/10,17:00:00,16,�É�,0.1,0.1,62.6,0,0.09,8,��,2.9,14,,
2017/3/10,18:00:00,16,�É�,0,-0.9,72.2,0,0.01,16,�É�,0,0,,
2017/3/10,19:00:00,1,�k�k��,2,-0.4,77.5,0,0,2,�k��,5.1,22,,
2017/3/10,20:00:00,2,�k��,1.1,-0.6,78.2,0,0,1,�k�k��,2.7,1,,
2017/3/10,21:00:00,16,�k,1.7,-0.3,83.2,0,0,1,�k�k��,2.9,57,,
2017/3/10,22:00:00,14,�k��,1.3,-1.2,86.3,0,0,1,�k�k��,3.9,37,,
2017/3/10,23:00:00,16,�k,1.9,-1.6,90.9,0,0,1,�k�k��,3.4,55,,
2017/3/10,0:00:00,16,�k,2.3,-1.8,84.6,0,0,1,�k�k��,4.5,52,,
2017/3/11,1:00:00,14,�k��,1,-4.2,84.1,0,0,2,�k��,4.8,4,,
2017/3/11,2:00:00,13,���k��,1.3,-11.9,79.1,0,0,13,���k��,2.4,59,,
2017/3/11,3:00:00,14,�k��,1.2,-11.5,85.6,0,0,13,���k��,3,9,,
2017/3/11,4:00:00,13,���k��,0.9,-10.4,85.8,0,0,11,���쐼,2.2,31,,
2017/3/11,5:00:00,12,��,2.5,-12.7,89.8,0,0,12,��,3.2,51,,
2017/3/11,6:00:00,13,���k��,2.1,-10.4,94.8,0,0.01,13,���k��,3.4,54,,
2017/3/11,7:00:00,13,���k��,2.5,-5.9,96.3,0,0.2,16,�k,3.6,56,,
2017/3/11,8:00:00,12,��,2.4,-6.6,65.4,0,0.33,13,���k��,3.9,1,,
2017/3/11,9:00:00,11,���쐼,1.6,-2.9,43.4,0,0.5,12,��,2.8,0,,
2017/3/11,10:00:00,7,��쓌,0.3,0.2,29.7,0.5,0.65,6,�쓌,2.1,57,,
2017/3/11,11:00:00,14,�k��,1.6,1.3,27.1,0.5,0.79,1,�k�k��,4.6,25,,
2017/3/11,12:00:00,2,�k��,1.7,2.7,27.9,0,0.81,12,��,3.7,6,,
2017/3/11,13:00:00,3,���k��,3.3,2.2,30.6,0,0.82,2,�k��,5.9,8,,
2017/3/11,14:00:00,16,�É�,0,2.8,26.3,0,0.77,3,���k��,3.7,17,,
2017/3/11,15:00:00,7,��쓌,2.7,2.1,31.9,0,0.65,7,��쓌,4.3,45,,
2017/3/11,16:00:00,7,��쓌,2.5,1.1,52.7,0,0.4,7,��쓌,4.8,16,,
2017/3/11,17:00:00,6,�쓌,1.3,0.3,56.9,0,0.16,7,��쓌,3.7,1,,
2017/3/11,18:00:00,16,�É�,0,-2.4,66.4,0,0.02,7,��쓌,2.1,10,,
2017/3/11,19:00:00,16,�É�,0,-4.1,72.8,0,0,2,�k��,1.2,5,,
2017/3/11,20:00:00,12,��,0.6,-5.6,77.2,0,0,12,��,2.3,33,,
2017/3/11,21:00:00,12,��,1.3,-3.7,87.5,0,0,12,��,2.4,14,,
2017/3/11,22:00:00,14,�k��,0.3,-3.5,83.9,0,0,12,��,2.4,25,,
2017/3/11,23:00:00,12,��,1.1,-5,78.6,0,0,13,���k��,1.6,43,,
2017/3/11,0:00:00,12,��,1.1,-4.2,83.9,0,0,12,��,1.7,21,,
2017/3/12,1:00:00,16,�É�,0,-5.6,84.7,0,0,12,��,1.4,0,,
2017/3/12,2:00:00,12,��,1.2,-4,89.1,0,0,12,��,2.5,21,,
2017/3/12,3:00:00,12,��,1.1,-3.4,84.4,0,0,13,���k��,2.1,35,,
2017/3/12,4:00:00,12,��,1.3,-3.3,80.7,0,0,10,�쐼,2.2,23,,
2017/3/12,5:00:00,12,��,1.8,-4,78.1,0,0,12,��,2.7,11,,
2017/3/12,6:00:00,12,��,1.2,-4.2,78.8,0,0.01,12,��,2,2,,
2017/3/12,7:00:00,14,�k��,1.5,-3.8,73.4,0,0.09,12,��,2.9,41,,
2017/3/12,8:00:00,14,�k��,1.5,-2.9,53.6,0,0.35,14,�k��,3.4,16,,
2017/3/12,9:00:00,16,�É�,0,0.4,36.3,0,0.55,14,�k��,2,33,,
2017/3/12,10:00:00,16,�É�,0,1.9,25.8,0,0.71,4,��,0.8,35,,
2017/3/12,11:00:00,6,�쓌,2.4,-0.4,39.6,0,0.81,6,�쓌,3.7,59,,
2017/3/12,12:00:00,7,��쓌,3,-0.5,45.9,0,0.84,7,��쓌,4.3,56,,
2017/3/12,13:00:00,7,��쓌,2.9,-0.6,52.4,0,0.81,7,��쓌,5.8,39,,
2017/3/12,14:00:00,8,��,3,-0.5,53.3,0,0.72,7,��쓌,5.5,26,,
2017/3/12,15:00:00,8,��,3.3,-0.4,62.8,0,0.57,7,��쓌,6.4,35,,
2017/3/12,16:00:00,8,��,3,-0.7,66.7,0,0.39,7,��쓌,6.6,11,,
2017/3/12,17:00:00,8,��,2.5,-0.9,73.7,0,0.17,7,��쓌,5.7,3,,
2017/3/12,18:00:00,9,��쐼,1.4,-1.7,78.9,0,0.02,8,��,4.7,11,,
2017/3/12,19:00:00,16,�É�,0,-3.5,81.8,0,0,8,��,2.8,0,,
2017/3/12,20:00:00,16,�É�,0,-5.3,85.2,0,0,2,�k��,2.5,8,,
2017/3/12,21:00:00,2,�k��,2.1,-3.4,89.7,0,0,2,�k��,2.9,54,,
2017/3/12,22:00:00,1,�k�k��,0.6,-8,85.7,0,0,2,�k��,2.7,9,,
2017/3/12,23:00:00,12,��,0.4,-8.1,87.3,0,0,12,��,1.4,59,,
2017/3/12,0:00:00,14,�k��,1.3,-5.9,91.3,0,0,13,���k��,2.5,43,,
2017/3/13,1:00:00,13,���k��,1.2,-6,94.7,0,0,13,���k��,3.2,34,,
2017/3/13,2:00:00,14,�k��,1.6,-5.7,95.5,0,0,13,���k��,3.5,9,,
2017/3/13,3:00:00,13,���k��,1.7,-5.2,96.3,0,0,9,��쐼,2.7,43,,
2017/3/13,4:00:00,16,�k,0.7,-5.4,94.8,0,0,13,���k��,3.1,24,,
2017/3/13,5:00:00,14,�k��,0.9,-6.3,92.8,0,0,14,�k��,2.8,42,,
2017/3/13,6:00:00,12,��,1.8,-7.4,93.6,0,0.01,12,��,2.7,48,,
2017/3/13,7:00:00,13,���k��,0.5,-5.3,95,0,0.05,1,�k�k��,6.7,48,,
2017/3/13,8:00:00,14,�k��,2,-4.2,86.3,0,0.13,14,�k��,2.7,39,,
2017/3/13,9:00:00,14,�k��,1.5,-2.1,78.6,0,0.26,13,���k��,3.7,15,,
2017/3/13,10:00:00,3,���k��,2.1,-0.4,58.4,0,0.53,4,��,3.1,49,,
2017/3/13,11:00:00,4,��,1.7,1.4,49.9,0,0.77,4,��,3.2,58,,
2017/3/13,12:00:00,5,���쓌,2.1,0.8,59.4,0,0.68,4,��,3.7,50,,
2017/3/13,13:00:00,5,���쓌,3.4,0.2,65.1,0,0.74,4,��,5.4,54,,
2017/3/13,14:00:00,5,���쓌,2.5,0.3,61.8,0,0.65,5,���쓌,4.4,13,,
2017/3/13,15:00:00,6,�쓌,0.9,0.2,57.1,0,0.48,5,���쓌,3.7,4,,
2017/3/13,16:00:00,7,��쓌,1.9,-0.3,56.4,0,0.4,6,�쓌,2.9,46,,
2017/3/13,17:00:00,7,��쓌,1.3,-0.9,71.9,0,0.17,7,��쓌,3.7,15,,
2017/3/13,18:00:00,16,�É�,0,-3.6,79.5,0,0.01,9,��쐼,2.9,28,,
2017/3/13,19:00:00,16,�É�,0,-5.6,84.3,0,0,16,�É�,0,0,,
2017/3/13,20:00:00,16,�É�,0,-5.8,86.9,0,0,16,�É�,0,0,,
2017/3/13,21:00:00,16,�É�,0,-7.8,84.7,0,0,16,�É�,0,0,,
2017/3/13,22:00:00,16,�É�,0,-7.1,89.7,0,0,16,�É�,0,0,,
2017/3/13,23:00:00,13,���k��,1,-8.1,92.2,0,0,12,��,2.1,37,,
2017/3/13,0:00:00,12,��,2,-7.1,93.6,0,0,13,���k��,2.5,59,,
2017/3/14,1:00:00,12,��,1.5,-7.7,93.8,0,0,13,���k��,2.5,1,,
2017/3/14,2:00:00,12,��,1.9,-5.6,95.7,0,0,12,��,2.5,56,,
2017/3/14,3:00:00,12,��,0.3,-4.3,96.3,0,0,13,���k��,2.9,4,,
2017/3/14,4:00:00,16,�k,1.4,-4,95.7,0,0,4,��,3.2,58,,
2017/3/14,5:00:00,13,���k��,1.9,-4.4,92.8,0,0,14,�k��,2.9,31,,
2017/3/14,6:00:00,14,�k��,3.6,-4,92.5,0,0.01,13,���k��,4.8,58,,
2017/3/14,7:00:00,14,�k��,2.2,-4,91.6,0,0.05,13,���k��,5,22,,
2017/3/14,8:00:00,14,�k��,2.2,-3,85.8,0,0.12,14,�k��,3.9,50,,
2017/3/14,9:00:00,14,�k��,1.7,-1.6,74.1,0,0.24,2,�k��,3.2,12,,
2017/3/14,10:00:00,12,��,2.1,-1,57.8,0,0.42,14,�k��,3.2,17,,
2017/3/14,11:00:00,16,�É�,0,1.5,35.7,0,0.75,9,��쐼,2.6,27,,
2017/3/14,12:00:00,5,���쓌,1.3,0.8,33.7,0,0.83,5,���쓌,2.6,58,,
2017/3/14,13:00:00,5,���쓌,2.7,1.3,44.6,0,0.8,5,���쓌,3.8,46,,
2017/3/14,14:00:00,5,���쓌,3.7,-0.5,60.2,0,0.68,3,���k��,5.5,34,,
2017/3/14,15:00:00,5,���쓌,2.9,-1,67.1,0,0.53,4,��,5.4,10,,
2017/3/14,16:00:00,6,�쓌,2.5,-1.7,69.7,0,0.37,4,��,4.5,14,,
2017/3/14,17:00:00,6,�쓌,1,-2.3,70.9,0,0.12,6,�쓌,3.4,3,,
2017/3/14,18:00:00,4,��,1.1,-4.4,73.3,0,0.02,5,���쓌,1.8,25,,
2017/3/14,19:00:00,16,�É�,0,-4.8,81.2,0,0,3,���k��,1.7,16,,
2017/3/14,20:00:00,2,�k��,0.4,-3,89.4,0,0,3,���k��,2.3,17,,
2017/3/14,21:00:00,4,��,1.6,-3.1,84.5,0,0,4,��,3,57,,
2017/3/14,22:00:00,3,���k��,1.4,-3.3,84.1,0,0,3,���k��,2.6,49,,
2017/3/14,23:00:00,16,�É�,0,-3.5,82.9,0,0,4,��,2.1,31,,
2017/3/14,0:00:00,12,��,1.7,-3.9,84.4,0,0,13,���k��,2.5,57,,
2017/3/15,1:00:00,13,���k��,2.4,-4.7,86.2,0,0,12,��,3.7,49,,
2017/3/15,2:00:00,13,���k��,2.8,-5.2,87.7,0,0,13,���k��,4.8,42,,
2017/3/15,3:00:00,12,��,2.6,-6.3,88.9,0,0,12,��,4.3,7,,
2017/3/15,4:00:00,12,��,1.9,-7.3,90.3,0,0,10,�쐼,7.5,28,,
2017/3/15,5:00:00,13,���k��,1.2,-6.9,91.5,0,0,13,���k��,3.2,0,,
2017/3/15,6:00:00,13,���k��,1.2,-7.4,90.8,0,0.01,14,�k��,1.9,13,,
2017/3/15,7:00:00,13,���k��,1.2,-6.8,90.7,0,0.08,13,���k��,2.9,56,,
2017/3/15,8:00:00,14,�k��,2.7,-4.5,69.7,0,0.31,13,���k��,4.9,43,,
2017/3/15,9:00:00,13,���k��,2.5,-3.2,60.7,0,0.5,13,���k��,5.4,40,,
2017/3/15,10:00:00,13,���k��,2.5,-1.3,48.3,0,0.68,13,���k��,5.1,11,,
2017/3/15,11:00:00,13,���k��,2.7,-0.4,36.7,0,0.8,13,���k��,5.3,59,,
2017/3/15,12:00:00,13,���k��,2.8,0.7,36.8,0,0.84,13,���k��,4.9,20,,
2017/3/15,13:00:00,6,�쓌,2.2,0.2,47.5,0,0.81,6,�쓌,4.5,23,,
2017/3/15,14:00:00,6,�쓌,2.2,0.2,48.6,0,0.7,6,�쓌,2.9,26,,
2017/3/15,15:00:00,6,�쓌,2.5,-0.3,52.8,0,0.54,6,�쓌,3.7,51,,
2017/3/15,16:00:00,5,���쓌,1,-0.3,59.1,0,0.35,6,�쓌,3.1,3,,
2017/3/15,17:00:00,7,��쓌,1.4,-1.3,62.5,0,0.14,7,��쓌,2,58,,
2017/3/15,18:00:00,7,��쓌,0.3,-3.1,72.3,0,0.02,7,��쓌,2.1,0,,
2017/3/15,19:00:00,16,�É�,0,-4.5,80.7,0,0,8,��,1,2,,
2017/3/15,20:00:00,12,��,0.9,-7.4,80.6,0,0,12,��,1.4,42,,
2017/3/15,21:00:00,12,��,1.4,-7.3,87,0,0,12,��,1.9,50,,
2017/3/15,22:00:00,12,��,1.4,-7.6,90.8,0,0,12,��,2.4,46,,
2017/3/15,23:00:00,11,���쐼,2.2,-6.3,90.9,0,0,12,��,3.4,40,,
2017/3/15,0:00:00,11,���쐼,1.8,-8.3,88.5,0,0,11,���쐼,2.7,0,,
2017/3/16,1:00:00,11,���쐼,1.3,-9.1,86.2,0,0,12,��,3.7,25,,
2017/3/16,2:00:00,8,��,1,-10.6,86.9,0,0.01,10,�쐼,3.2,13,,
2017/3/16,3:00:00,13,���k��,3.7,-2.5,83.5,0,0,3,���k��,6.9,47,,
2017/3/16,4:00:00,13,���k��,6.1,-0.1,60.1,0,0,12,��,12.6,35,,
2017/3/16,5:00:00,14,�k��,4.6,0.3,60.2,0,0,13,���k��,11.5,14,,
2017/3/16,6:00:00,13,���k��,3.7,0.3,59.7,0,0.02,13,���k��,8.4,19,,
2017/3/16,7:00:00,13,���k��,4.9,1.4,53.4,0,0.16,13,���k��,11.5,44,,
2017/3/16,8:00:00,14,�k��,5.3,1.9,51.3,0,0.33,14,�k��,10.9,52,,
2017/3/16,9:00:00,14,�k��,5.5,2.9,51,0,0.22,12,��,12.5,1,,
2017/3/16,10:00:00,13,���k��,5.6,3.7,46.2,0,0.39,13,���k��,15,16,,
2017/3/16,11:00:00,14,�k��,5.9,3.5,49.7,0,0.4,14,�k��,13,44,,
2017/3/16,12:00:00,14,�k��,4.8,4,47.8,0,0.35,11,���쐼,13.2,40,,
2017/3/16,13:00:00,14,�k��,3.7,4,50.2,0,0.39,15,�k�k��,8.5,21,,
2017/3/16,14:00:00,15,�k�k��,3,4.2,47.4,0,0.34,14,�k��,9.1,10,,
2017/3/16,15:00:00,15,�k�k��,3.7,4.7,46.1,0,0.32,14,�k��,6.5,40,,
2017/3/16,16:00:00,15,�k�k��,3.8,4.3,49.2,0,0.23,16,�k,7.8,58,,
2017/3/16,17:00:00,2,�k��,3.5,3.9,55,0,0.08,2,�k��,8.1,59,,
2017/3/16,18:00:00,3,���k��,2.4,2,66.3,0,0.01,2,�k��,6.8,32,,
2017/3/16,19:00:00,16,�É�,0,0.3,68,0,0,3,���k��,3.4,0,,
2017/3/16,20:00:00,12,��,2.1,-0.3,77.7,0,0,12,��,2.6,57,,
2017/3/16,21:00:00,13,���k��,0.7,-0.3,78,0,0,12,��,2.5,6,,
2017/3/16,22:00:00,16,�É�,0,-1.2,79.7,0,0,12,��,3,9,,
2017/3/16,23:00:00,12,��,0.9,-1.9,81.3,0,0,12,��,2.5,21,,
2017/3/16,0:00:00,12,��,0.9,-2.8,82,0,0,13,���k��,1.8,59,,
2017/3/17,1:00:00,14,�k��,0.6,-4,82.2,0,0,13,���k��,1.9,8,,
2017/3/17,2:00:00,11,���쐼,1.5,-6,82.3,0,0,10,�쐼,1.9,41,,
2017/3/17,3:00:00,12,��,2.2,-6,86.5,0,0,12,��,3,56,,
2017/3/17,4:00:00,12,��,2.3,-5.9,88.7,0,0,12,��,3,58,,
2017/3/17,5:00:00,12,��,1.6,-7.3,90.1,0,0,13,���k��,3.1,8,,
2017/3/17,6:00:00,12,��,1.9,-7.2,88.5,0,0.01,12,��,2.9,59,,
2017/3/17,7:00:00,13,���k��,2.9,-2.3,78.4,0,0.17,12,��,4.6,38,,